Year,Month,Day,Hour,Minute,Value (Times are PST for insolation in W/m^2)
2019,04,12,00,00,0.00
2019,04,12,00,01,0.00
2019,04,12,00,02,0.00
2019,04,12,00,03,0.00
2019,04,12,00,04,0.00
2019,04,12,00,05,0.00
2019,04,12,00,06,0.00
2019,04,12,00,07,0.00
2019,04,12,00,08,0.00
2019,04,12,00,09,0.00
2019,04,12,00,10,0.00
2019,04,12,00,11,0.00
2019,04,12,00,12,0.00
2019,04,12,00,13,0.00
2019,04,12,00,14,0.00
2019,04,12,00,15,0.00
2019,04,12,00,16,0.00
2019,04,12,00,17,0.00
2019,04,12,00,18,0.00
2019,04,12,00,19,0.00
2019,04,12,00,20,0.00
2019,04,12,00,21,0.00
2019,04,12,00,22,0.00
2019,04,12,00,23,0.00
2019,04,12,00,24,0.00
2019,04,12,00,25,0.00
2019,04,12,00,26,0.00
2019,04,12,00,27,0.00
2019,04,12,00,28,0.00
2019,04,12,00,29,0.00
2019,04,12,00,30,0.00
2019,04,12,00,31,0.00
2019,04,12,00,32,0.00
2019,04,12,00,33,0.00
2019,04,12,00,34,0.00
2019,04,12,00,35,0.00
2019,04,12,00,36,0.00
2019,04,12,00,37,0.00
2019,04,12,00,38,0.00
2019,04,12,00,39,0.00
2019,04,12,00,40,0.00
2019,04,12,00,41,0.00
2019,04,12,00,42,0.00
2019,04,12,00,43,0.00
2019,04,12,00,44,0.00
2019,04,12,00,45,0.00
2019,04,12,00,46,0.00
2019,04,12,00,47,0.00
2019,04,12,00,48,0.00
2019,04,12,00,49,0.00
2019,04,12,00,50,0.00
2019,04,12,00,51,0.00
2019,04,12,00,52,0.00
2019,04,12,00,53,0.00
2019,04,12,00,54,0.00
2019,04,12,00,55,0.00
2019,04,12,00,56,0.00
2019,04,12,00,57,0.00
2019,04,12,00,58,0.00
2019,04,12,00,59,0.00
2019,04,12,01,00,0.00
2019,04,12,01,01,0.00
2019,04,12,01,02,0.00
2019,04,12,01,03,0.00
2019,04,12,01,04,0.00
2019,04,12,01,05,0.00
2019,04,12,01,06,0.00
2019,04,12,01,07,0.00
2019,04,12,01,08,0.00
2019,04,12,01,09,0.00
2019,04,12,01,10,0.00
2019,04,12,01,11,0.00
2019,04,12,01,12,0.00
2019,04,12,01,13,0.00
2019,04,12,01,14,0.00
2019,04,12,01,15,0.00
2019,04,12,01,16,0.00
2019,04,12,01,17,0.00
2019,04,12,01,18,0.00
2019,04,12,01,19,0.00
2019,04,12,01,20,0.00
2019,04,12,01,21,0.00
2019,04,12,01,22,0.00
2019,04,12,01,23,0.00
2019,04,12,01,24,0.00
2019,04,12,01,25,0.00
2019,04,12,01,26,0.00
2019,04,12,01,27,0.00
2019,04,12,01,28,0.00
2019,04,12,01,29,0.00
2019,04,12,01,30,0.00
2019,04,12,01,31,0.00
2019,04,12,01,32,0.00
2019,04,12,01,33,0.00
2019,04,12,01,34,0.00
2019,04,12,01,35,0.00
2019,04,12,01,36,0.00
2019,04,12,01,37,0.00
2019,04,12,01,38,0.00
2019,04,12,01,39,0.00
2019,04,12,01,40,0.00
2019,04,12,01,41,0.00
2019,04,12,01,42,0.00
2019,04,12,01,43,0.00
2019,04,12,01,44,0.00
2019,04,12,01,45,0.00
2019,04,12,01,46,0.00
2019,04,12,01,47,0.00
2019,04,12,01,48,0.00
2019,04,12,01,49,0.00
2019,04,12,01,50,0.00
2019,04,12,01,51,0.00
2019,04,12,01,52,0.00
2019,04,12,01,53,0.00
2019,04,12,01,54,0.00
2019,04,12,01,55,0.00
2019,04,12,01,56,0.00
2019,04,12,01,57,0.00
2019,04,12,01,58,0.00
2019,04,12,01,59,0.00
2019,04,12,02,00,0.00
2019,04,12,02,01,0.00
2019,04,12,02,02,0.00
2019,04,12,02,03,0.00
2019,04,12,02,04,0.00
2019,04,12,02,05,0.00
2019,04,12,02,06,0.00
2019,04,12,02,07,0.00
2019,04,12,02,08,0.00
2019,04,12,02,09,0.00
2019,04,12,02,10,0.00
2019,04,12,02,11,0.00
2019,04,12,02,12,0.00
2019,04,12,02,13,0.00
2019,04,12,02,14,0.00
2019,04,12,02,15,0.00
2019,04,12,02,16,0.00
2019,04,12,02,17,0.00
2019,04,12,02,18,0.00
2019,04,12,02,19,0.00
2019,04,12,02,20,0.00
2019,04,12,02,21,0.00
2019,04,12,02,22,0.00
2019,04,12,02,23,0.00
2019,04,12,02,24,0.00
2019,04,12,02,25,0.00
2019,04,12,02,26,0.00
2019,04,12,02,27,0.00
2019,04,12,02,28,0.00
2019,04,12,02,29,0.00
2019,04,12,02,30,0.00
2019,04,12,02,31,0.00
2019,04,12,02,32,0.00
2019,04,12,02,33,0.00
2019,04,12,02,34,0.00
2019,04,12,02,35,0.00
2019,04,12,02,36,0.00
2019,04,12,02,37,0.00
2019,04,12,02,38,0.00
2019,04,12,02,39,0.00
2019,04,12,02,40,0.00
2019,04,12,02,41,0.00
2019,04,12,02,42,0.00
2019,04,12,02,43,0.00
2019,04,12,02,44,0.00
2019,04,12,02,45,0.00
2019,04,12,02,46,0.00
2019,04,12,02,47,0.00
2019,04,12,02,48,0.00
2019,04,12,02,49,0.00
2019,04,12,02,50,0.00
2019,04,12,02,51,0.00
2019,04,12,02,52,0.00
2019,04,12,02,53,0.00
2019,04,12,02,54,0.00
2019,04,12,02,55,0.00
2019,04,12,02,56,0.00
2019,04,12,02,57,0.00
2019,04,12,02,58,0.00
2019,04,12,02,59,0.00
2019,04,12,03,00,0.00
2019,04,12,03,01,0.00
2019,04,12,03,02,0.00
2019,04,12,03,03,0.00
2019,04,12,03,04,0.00
2019,04,12,03,05,0.00
2019,04,12,03,06,0.00
2019,04,12,03,07,0.00
2019,04,12,03,08,0.00
2019,04,12,03,09,0.00
2019,04,12,03,10,0.00
2019,04,12,03,11,0.00
2019,04,12,03,12,0.00
2019,04,12,03,13,0.00
2019,04,12,03,14,0.00
2019,04,12,03,15,0.00
2019,04,12,03,16,0.00
2019,04,12,03,17,0.00
2019,04,12,03,18,0.00
2019,04,12,03,19,0.00
2019,04,12,03,20,0.00
2019,04,12,03,21,0.00
2019,04,12,03,22,0.00
2019,04,12,03,23,0.00
2019,04,12,03,24,0.00
2019,04,12,03,25,0.00
2019,04,12,03,26,0.00
2019,04,12,03,27,0.00
2019,04,12,03,28,0.00
2019,04,12,03,29,0.00
2019,04,12,03,30,0.00
2019,04,12,03,31,0.00
2019,04,12,03,32,0.00
2019,04,12,03,33,0.00
2019,04,12,03,34,0.00
2019,04,12,03,35,0.00
2019,04,12,03,36,0.00
2019,04,12,03,37,0.00
2019,04,12,03,38,0.00
2019,04,12,03,39,0.00
2019,04,12,03,40,0.00
2019,04,12,03,41,0.00
2019,04,12,03,42,0.00
2019,04,12,03,43,0.00
2019,04,12,03,44,0.00
2019,04,12,03,45,0.00
2019,04,12,03,46,0.00
2019,04,12,03,47,0.00
2019,04,12,03,48,0.00
2019,04,12,03,49,0.00
2019,04,12,03,50,0.00
2019,04,12,03,51,0.00
2019,04,12,03,52,0.00
2019,04,12,03,53,0.00
2019,04,12,03,54,0.00
2019,04,12,03,55,0.00
2019,04,12,03,56,0.00
2019,04,12,03,57,0.00
2019,04,12,03,58,0.00
2019,04,12,03,59,0.00
2019,04,12,04,00,0.00
2019,04,12,04,01,0.00
2019,04,12,04,02,0.00
2019,04,12,04,03,0.00
2019,04,12,04,04,0.00
2019,04,12,04,05,0.00
2019,04,12,04,06,0.00
2019,04,12,04,07,0.00
2019,04,12,04,08,0.00
2019,04,12,04,09,0.00
2019,04,12,04,10,0.00
2019,04,12,04,11,0.00
2019,04,12,04,12,0.00
2019,04,12,04,13,0.00
2019,04,12,04,14,0.00
2019,04,12,04,15,0.00
2019,04,12,04,16,0.00
2019,04,12,04,17,0.00
2019,04,12,04,18,0.00
2019,04,12,04,19,0.00
2019,04,12,04,20,0.00
2019,04,12,04,21,0.00
2019,04,12,04,22,0.00
2019,04,12,04,23,0.00
2019,04,12,04,24,0.00
2019,04,12,04,25,0.00
2019,04,12,04,26,0.00
2019,04,12,04,27,0.00
2019,04,12,04,28,0.00
2019,04,12,04,29,0.00
2019,04,12,04,30,0.00
2019,04,12,04,31,0.00
2019,04,12,04,32,0.00
2019,04,12,04,33,0.00
2019,04,12,04,34,0.00
2019,04,12,04,35,0.00
2019,04,12,04,36,0.00
2019,04,12,04,37,0.00
2019,04,12,04,38,0.00
2019,04,12,04,39,0.00
2019,04,12,04,40,0.00
2019,04,12,04,41,0.00
2019,04,12,04,42,0.00
2019,04,12,04,43,0.00
2019,04,12,04,44,0.00
2019,04,12,04,45,0.00
2019,04,12,04,46,0.00
2019,04,12,04,47,0.00
2019,04,12,04,48,0.00
2019,04,12,04,49,0.00
2019,04,12,04,50,0.00
2019,04,12,04,51,0.00
2019,04,12,04,52,0.00
2019,04,12,04,53,0.00
2019,04,12,04,54,0.00
2019,04,12,04,55,0.00
2019,04,12,04,56,0.00
2019,04,12,04,57,0.00
2019,04,12,04,58,0.00
2019,04,12,04,59,0.00
2019,04,12,05,00,0.00
2019,04,12,05,01,0.00
2019,04,12,05,02,0.00
2019,04,12,05,03,0.00
2019,04,12,05,04,0.00
2019,04,12,05,05,0.00
2019,04,12,05,06,0.00
2019,04,12,05,07,0.00
2019,04,12,05,08,0.00
2019,04,12,05,09,0.00
2019,04,12,05,10,0.00
2019,04,12,05,11,0.00
2019,04,12,05,12,0.00
2019,04,12,05,13,0.00
2019,04,12,05,14,0.00
2019,04,12,05,15,0.00
2019,04,12,05,16,0.00
2019,04,12,05,17,0.00
2019,04,12,05,18,0.00
2019,04,12,05,19,0.00
2019,04,12,05,20,0.00
2019,04,12,05,21,0.00
2019,04,12,05,22,0.00
2019,04,12,05,23,0.00
2019,04,12,05,24,0.00
2019,04,12,05,25,0.00
2019,04,12,05,26,0.00
2019,04,12,05,27,0.00
2019,04,12,05,28,0.00
2019,04,12,05,29,0.00
2019,04,12,05,30,0.00
2019,04,12,05,31,0.00
2019,04,12,05,32,0.00
2019,04,12,05,33,0.00
2019,04,12,05,34,0.00
2019,04,12,05,35,0.00
2019,04,12,05,36,0.00
2019,04,12,05,37,0.00
2019,04,12,05,38,0.00
2019,04,12,05,39,0.00
2019,04,12,05,40,0.00
2019,04,12,05,41,0.00
2019,04,12,05,42,0.00
2019,04,12,05,43,0.00
2019,04,12,05,44,0.00
2019,04,12,05,45,0.00
2019,04,12,05,46,0.00
2019,04,12,05,47,0.00
2019,04,12,05,48,0.00
2019,04,12,05,49,0.00
2019,04,12,05,50,0.00
2019,04,12,05,51,0.00
2019,04,12,05,52,0.00
2019,04,12,05,53,0.00
2019,04,12,05,54,0.00
2019,04,12,05,55,0.00
2019,04,12,05,56,0.00
2019,04,12,05,57,0.00
2019,04,12,05,58,0.00
2019,04,12,05,59,0.00
2019,04,12,06,00,0.00
2019,04,12,06,01,0.00
2019,04,12,06,02,0.00
2019,04,12,06,03,0.00
2019,04,12,06,04,0.00
2019,04,12,06,05,0.00
2019,04,12,06,06,0.00
2019,04,12,06,07,0.00
2019,04,12,06,08,0.00
2019,04,12,06,09,0.00
2019,04,12,06,10,0.00
2019,04,12,06,11,0.00
2019,04,12,06,12,0.00
2019,04,12,06,13,0.00
2019,04,12,06,14,0.00
2019,04,12,06,15,0.00
2019,04,12,06,16,0.00
2019,04,12,06,17,0.00
2019,04,12,06,18,0.00
2019,04,12,06,19,0.00
2019,04,12,06,20,0.00
2019,04,12,06,21,0.00
2019,04,12,06,22,0.00
2019,04,12,06,23,0.00
2019,04,12,06,24,0.00
2019,04,12,06,25,0.00
2019,04,12,06,26,0.00
2019,04,12,06,27,0.00
2019,04,12,06,28,0.00
2019,04,12,06,29,0.00
2019,04,12,06,30,0.00
2019,04,12,06,31,0.00
2019,04,12,06,32,0.00
2019,04,12,06,33,0.00
2019,04,12,06,34,0.00
2019,04,12,06,35,0.00
2019,04,12,06,36,0.00
2019,04,12,06,37,1.10
2019,04,12,06,38,5.00
2019,04,12,06,39,5.00
2019,04,12,06,40,5.00
2019,04,12,06,41,6.30
2019,04,12,06,42,7.00
2019,04,12,06,43,7.00
2019,04,12,06,44,7.00
2019,04,12,06,45,7.00
2019,04,12,06,46,7.60
2019,04,12,06,47,9.00
2019,04,12,06,48,9.00
2019,04,12,06,49,10.20
2019,04,12,06,50,11.00
2019,04,12,06,51,11.00
2019,04,12,06,52,11.90
2019,04,12,06,53,12.00
2019,04,12,06,54,12.50
2019,04,12,06,55,14.00
2019,04,12,06,56,14.00
2019,04,12,06,57,14.00
2019,04,12,06,58,15.20
2019,04,12,06,59,17.50
2019,04,12,07,00,18.00
2019,04,12,07,01,19.00
2019,04,12,07,02,19.00
2019,04,12,07,03,19.00
2019,04,12,07,04,19.00
2019,04,12,07,05,19.00
2019,04,12,07,06,20.10
2019,04,12,07,07,21.00
2019,04,12,07,08,21.00
2019,04,12,07,09,19.20
2019,04,12,07,10,18.40
2019,04,12,07,11,21.80
2019,04,12,07,12,26.60
2019,04,12,07,13,28.80
2019,04,12,07,14,30.00
2019,04,12,07,15,31.20
2019,04,12,07,16,32.00
2019,04,12,07,17,32.80
2019,04,12,07,18,33.00
2019,04,12,07,19,33.30
2019,04,12,07,20,35.00
2019,04,12,07,21,35.00
2019,04,12,07,22,35.90
2019,04,12,07,23,38.00
2019,04,12,07,24,40.90
2019,04,12,07,25,43.50
2019,04,12,07,26,45.70
2019,04,12,07,27,46.00
2019,04,12,07,28,46.00
2019,04,12,07,29,46.20
2019,04,12,07,30,47.80
2019,04,12,07,31,49.00
2019,04,12,07,32,49.00
2019,04,12,07,33,49.00
2019,04,12,07,34,50.60
2019,04,12,07,35,51.00
2019,04,12,07,36,52.90
2019,04,12,07,37,53.20
2019,04,12,07,38,54.00
2019,04,12,07,39,54.80
2019,04,12,07,40,56.00
2019,04,12,07,41,57.20
2019,04,12,07,42,58.00
2019,04,12,07,43,58.00
2019,04,12,07,44,59.80
2019,04,12,07,45,60.00
2019,04,12,07,46,60.40
2019,04,12,07,47,62.30
2019,04,12,07,48,63.00
2019,04,12,07,49,63.00
2019,04,12,07,50,62.30
2019,04,12,07,51,62.00
2019,04,12,07,52,62.00
2019,04,12,07,53,62.10
2019,04,12,07,54,63.00
2019,04,12,07,55,63.60
2019,04,12,07,56,65.00
2019,04,12,07,57,66.00
2019,04,12,07,58,67.00
2019,04,12,07,59,67.00
2019,04,12,08,00,67.00
2019,04,12,08,01,68.80
2019,04,12,08,02,69.00
2019,04,12,08,03,69.00
2019,04,12,08,04,69.30
2019,04,12,08,05,70.00
2019,04,12,08,06,71.10
2019,04,12,08,07,73.30
2019,04,12,08,08,75.50
2019,04,12,08,09,78.60
2019,04,12,08,10,83.10
2019,04,12,08,11,84.90
2019,04,12,08,12,90.80
2019,04,12,08,13,94.40
2019,04,12,08,14,98.40
2019,04,12,08,15,101.10
2019,04,12,08,16,103.30
2019,04,12,08,17,104.00
2019,04,12,08,18,104.80
2019,04,12,08,19,107.40
2019,04,12,08,20,111.00
2019,04,12,08,21,111.00
2019,04,12,08,22,110.20
2019,04,12,08,23,106.90
2019,04,12,08,24,104.40
2019,04,12,08,25,104.00
2019,04,12,08,26,104.00
2019,04,12,08,27,105.10
2019,04,12,08,28,109.60
2019,04,12,08,29,113.00
2019,04,12,08,30,113.00
2019,04,12,08,31,113.40
2019,04,12,08,32,116.20
2019,04,12,08,33,119.90
2019,04,12,08,34,124.00
2019,04,12,08,35,126.70
2019,04,12,08,36,123.20
2019,04,12,08,37,123.00
2019,04,12,08,38,123.60
2019,04,12,08,39,127.10
2019,04,12,08,40,132.10
2019,04,12,08,41,137.00
2019,04,12,08,42,139.00
2019,04,12,08,43,137.30
2019,04,12,08,44,139.10
2019,04,12,08,45,142.90
2019,04,12,08,46,148.80
2019,04,12,08,47,152.60
2019,04,12,08,48,160.10
2019,04,12,08,49,168.70
2019,04,12,08,50,174.60
2019,04,12,08,51,177.50
2019,04,12,08,52,180.60
2019,04,12,08,53,181.00
2019,04,12,08,54,181.60
2019,04,12,08,55,186.20
2019,04,12,08,56,190.70
2019,04,12,08,57,192.00
2019,04,12,08,58,193.70
2019,04,12,08,59,193.60
2019,04,12,09,00,192.20
2019,04,12,09,01,190.20
2019,04,12,09,02,192.70
2019,04,12,09,03,199.70
2019,04,12,09,04,203.20
2019,04,12,09,05,210.80
2019,04,12,09,06,225.00
2019,04,12,09,07,235.10
2019,04,12,09,08,241.50
2019,04,12,09,09,243.00
2019,04,12,09,10,237.20
2019,04,12,09,11,246.70
2019,04,12,09,12,254.80
2019,04,12,09,13,260.70
2019,04,12,09,14,262.90
2019,04,12,09,15,262.90
2019,04,12,09,16,260.60
2019,04,12,09,17,261.50
2019,04,12,09,18,262.00
2019,04,12,09,19,262.10
2019,04,12,09,20,263.10
2019,04,12,09,21,256.60
2019,04,12,09,22,251.70
2019,04,12,09,23,250.00
2019,04,12,09,24,250.60
2019,04,12,09,25,253.90
2019,04,12,09,26,259.00
2019,04,12,09,27,257.30
2019,04,12,09,28,250.20
2019,04,12,09,29,241.60
2019,04,12,09,30,238.50
2019,04,12,09,31,242.00
2019,04,12,09,32,241.90
2019,04,12,09,33,244.20
2019,04,12,09,34,249.80
2019,04,12,09,35,251.00
2019,04,12,09,36,253.20
2019,04,12,09,37,257.00
2019,04,12,09,38,257.00
2019,04,12,09,39,254.80
2019,04,12,09,40,248.80
2019,04,12,09,41,246.00
2019,04,12,09,42,249.20
2019,04,12,09,43,254.00
2019,04,12,09,44,255.00
2019,04,12,09,45,254.80
2019,04,12,09,46,253.00
2019,04,12,09,47,254.20
2019,04,12,09,48,259.00
2019,04,12,09,49,267.00
2019,04,12,09,50,278.80
2019,04,12,09,51,295.00
2019,04,12,09,52,313.50
2019,04,12,09,53,328.20
2019,04,12,09,54,339.80
2019,04,12,09,55,355.20
2019,04,12,09,56,375.00
2019,04,12,09,57,380.60
2019,04,12,09,58,366.50
2019,04,12,09,59,345.00
2019,04,12,10,00,331.90
2019,04,12,10,01,313.70
2019,04,12,10,02,296.10
2019,04,12,10,03,286.20
2019,04,12,10,04,280.10
2019,04,12,10,05,285.90
2019,04,12,10,06,294.70
2019,04,12,10,07,316.10
2019,04,12,10,08,343.40
2019,04,12,10,09,312.70
2019,04,12,10,10,301.90
2019,04,12,10,11,325.30
2019,04,12,10,12,358.00
2019,04,12,10,13,363.70
2019,04,12,10,14,370.80
2019,04,12,10,15,377.10
2019,04,12,10,16,389.70
2019,04,12,10,17,403.40
2019,04,12,10,18,385.50
2019,04,12,10,19,406.80
2019,04,12,10,20,409.40
2019,04,12,10,21,405.40
2019,04,12,10,22,402.20
2019,04,12,10,23,397.70
2019,04,12,10,24,390.90
2019,04,12,10,25,379.90
2019,04,12,10,26,372.20
2019,04,12,10,27,367.40
2019,04,12,10,28,367.00
2019,04,12,10,29,366.80
2019,04,12,10,30,366.00
2019,04,12,10,31,367.30
2019,04,12,10,32,370.90
2019,04,12,10,33,376.20
2019,04,12,10,34,383.20
2019,04,12,10,35,392.30
2019,04,12,10,36,404.20
2019,04,12,10,37,420.40
2019,04,12,10,38,449.10
2019,04,12,10,39,484.60
2019,04,12,10,40,491.80
2019,04,12,10,41,528.90
2019,04,12,10,42,525.00
2019,04,12,10,43,513.80
2019,04,12,10,44,440.50
2019,04,12,10,45,411.20
2019,04,12,10,46,442.80
2019,04,12,10,47,415.50
2019,04,12,10,48,399.50
2019,04,12,10,49,405.00
2019,04,12,10,50,398.30
2019,04,12,10,51,391.10
2019,04,12,10,52,393.20
2019,04,12,10,53,395.80
2019,04,12,10,54,396.00
2019,04,12,10,55,396.00
2019,04,12,10,56,395.30
2019,04,12,10,57,394.00
2019,04,12,10,58,394.00
2019,04,12,10,59,392.80
2019,04,12,11,00,390.50
2019,04,12,11,01,390.00
2019,04,12,11,02,390.20
2019,04,12,11,03,393.40
2019,04,12,11,04,401.50
2019,04,12,11,05,405.60
2019,04,12,11,06,412.20
2019,04,12,11,07,419.90
2019,04,12,11,08,428.50
2019,04,12,11,09,437.10
2019,04,12,11,10,455.20
2019,04,12,11,11,460.70
2019,04,12,11,12,485.60
2019,04,12,11,13,449.90
2019,04,12,11,14,435.00
2019,04,12,11,15,416.30
2019,04,12,11,16,415.50
2019,04,12,11,17,422.20
2019,04,12,11,18,437.80
2019,04,12,11,19,421.50
2019,04,12,11,20,434.10
2019,04,12,11,21,438.20
2019,04,12,11,22,395.20
2019,04,12,11,23,393.00
2019,04,12,11,24,398.70
2019,04,12,11,25,417.30
2019,04,12,11,26,426.50
2019,04,12,11,27,436.90
2019,04,12,11,28,452.70
2019,04,12,11,29,484.80
2019,04,12,11,30,511.40
2019,04,12,11,31,484.00
2019,04,12,11,32,437.00
2019,04,12,11,33,427.80
2019,04,12,11,34,431.70
2019,04,12,11,35,434.00
2019,04,12,11,36,438.70
2019,04,12,11,37,476.90
2019,04,12,11,38,429.20
2019,04,12,11,39,420.40
2019,04,12,11,40,418.30
2019,04,12,11,41,425.00
2019,04,12,11,42,436.60
2019,04,12,11,43,458.50
2019,04,12,11,44,495.60
2019,04,12,11,45,483.10
2019,04,12,11,46,497.50
2019,04,12,11,47,484.50
2019,04,12,11,48,475.60
2019,04,12,11,49,483.00
2019,04,12,11,50,483.00
2019,04,12,11,51,484.30
2019,04,12,11,52,475.90
2019,04,12,11,53,446.00
2019,04,12,11,54,445.80
2019,04,12,11,55,408.20
2019,04,12,11,56,398.90
2019,04,12,11,57,388.50
2019,04,12,11,58,376.20
2019,04,12,11,59,365.60
2019,04,12,12,00,360.50
2019,04,12,12,01,357.60
2019,04,12,12,02,353.00
2019,04,12,12,03,349.70
2019,04,12,12,04,347.50
2019,04,12,12,05,346.70
2019,04,12,12,06,349.90
2019,04,12,12,07,354.90
2019,04,12,12,08,360.20
2019,04,12,12,09,365.80
2019,04,12,12,10,380.60
2019,04,12,12,11,376.10
2019,04,12,12,12,375.80
2019,04,12,12,13,376.10
2019,04,12,12,14,357.30
2019,04,12,12,15,349.20
2019,04,12,12,16,336.50
2019,04,12,12,17,325.70
2019,04,12,12,18,317.40
2019,04,12,12,19,313.30
2019,04,12,12,20,311.30
2019,04,12,12,21,313.80
2019,04,12,12,22,317.30
2019,04,12,12,23,322.00
2019,04,12,12,24,327.60
2019,04,12,12,25,333.90
2019,04,12,12,26,337.60
2019,04,12,12,27,340.70
2019,04,12,12,28,341.10
2019,04,12,12,29,343.60
2019,04,12,12,30,347.10
2019,04,12,12,31,350.00
2019,04,12,12,32,350.00
2019,04,12,12,33,350.00
2019,04,12,12,34,371.50
2019,04,12,12,35,419.60
2019,04,12,12,36,421.60
2019,04,12,12,37,392.00
2019,04,12,12,38,375.30
2019,04,12,12,39,361.30
2019,04,12,12,40,353.00
2019,04,12,12,41,350.00
2019,04,12,12,42,351.20
2019,04,12,12,43,355.60
2019,04,12,12,44,359.40
2019,04,12,12,45,357.00
2019,04,12,12,46,351.40
2019,04,12,12,47,347.60
2019,04,12,12,48,346.70
2019,04,12,12,49,349.80
2019,04,12,12,50,356.40
2019,04,12,12,51,364.50
2019,04,12,12,52,375.40
2019,04,12,12,53,378.00
2019,04,12,12,54,376.90
2019,04,12,12,55,365.40
2019,04,12,12,56,357.50
2019,04,12,12,57,355.30
2019,04,12,12,58,366.50
2019,04,12,12,59,358.80
2019,04,12,13,00,340.20
2019,04,12,13,01,331.20
2019,04,12,13,02,327.30
2019,04,12,13,03,325.00
2019,04,12,13,04,325.00
2019,04,12,13,05,325.70
2019,04,12,13,06,327.80
2019,04,12,13,07,329.00
2019,04,12,13,08,331.00
2019,04,12,13,09,333.40
2019,04,12,13,10,338.50
2019,04,12,13,11,348.70
2019,04,12,13,12,364.70
2019,04,12,13,13,387.40
2019,04,12,13,14,425.20
2019,04,12,13,15,455.40
2019,04,12,13,16,459.80
2019,04,12,13,17,450.70
2019,04,12,13,18,477.00
2019,04,12,13,19,503.00
2019,04,12,13,20,506.00
2019,04,12,13,21,506.00
2019,04,12,13,22,507.20
2019,04,12,13,23,507.00
2019,04,12,13,24,537.00
2019,04,12,13,25,601.60
2019,04,12,13,26,622.00
2019,04,12,13,27,622.00
2019,04,12,13,28,650.60
2019,04,12,13,29,1194.00
2019,04,12,13,30,1194.00
2019,04,12,13,31,1194.00
2019,04,12,13,32,1218.60
2019,04,12,13,33,1246.00
2019,04,12,13,34,1246.00
2019,04,12,13,35,755.50
2019,04,12,13,36,592.00
2019,04,12,13,37,592.00
2019,04,12,13,38,587.00
2019,04,12,13,39,559.20
2019,04,12,13,40,540.00
2019,04,12,13,41,540.00
2019,04,12,13,42,575.40
2019,04,12,13,43,599.00
2019,04,12,13,44,599.00
2019,04,12,13,45,599.00
2019,04,12,13,46,586.00
2019,04,12,13,47,485.60
2019,04,12,13,48,529.20
2019,04,12,13,49,460.90
2019,04,12,13,50,429.00
2019,04,12,13,51,429.00
2019,04,12,13,52,429.00
2019,04,12,13,53,972.20
2019,04,12,13,54,1058.00
2019,04,12,13,55,1052.30
2019,04,12,13,56,1014.80
2019,04,12,13,57,1005.80
2019,04,12,13,58,975.00
2019,04,12,13,59,946.00
2019,04,12,14,00,946.00
2019,04,12,14,01,432.40
2019,04,12,14,02,304.00
2019,04,12,14,03,304.00
2019,04,12,14,04,304.00
2019,04,12,14,05,304.00
2019,04,12,14,06,587.00
2019,04,12,14,07,911.00
2019,04,12,14,08,891.60
2019,04,12,14,09,889.20
2019,04,12,14,10,878.70
2019,04,12,14,11,866.10
2019,04,12,14,12,815.90
2019,04,12,14,13,850.00
2019,04,12,14,14,843.80
2019,04,12,14,15,836.70
2019,04,12,14,16,832.70
2019,04,12,14,17,826.30
2019,04,12,14,18,818.80
2019,04,12,14,19,817.00
2019,04,12,14,20,814.30
2019,04,12,14,21,816.00
2019,04,12,14,22,812.00
2019,04,12,14,23,812.80
2019,04,12,14,24,814.00
2019,04,12,14,25,812.80
2019,04,12,14,26,814.90
2019,04,12,14,27,816.00
2019,04,12,14,28,816.00
2019,04,12,14,29,821.20
2019,04,12,14,30,824.20
2019,04,12,14,31,829.80
2019,04,12,14,32,835.00
2019,04,12,14,33,841.10
2019,04,12,14,34,844.00
2019,04,12,14,35,844.00
2019,04,12,14,36,840.80
2019,04,12,14,37,838.30
2019,04,12,14,38,842.20
2019,04,12,14,39,854.00
2019,04,12,14,40,854.00
2019,04,12,14,41,850.50
2019,04,12,14,42,848.20
2019,04,12,14,43,849.00
2019,04,12,14,44,849.00
2019,04,12,14,45,801.00
2019,04,12,14,46,790.80
2019,04,12,14,47,788.40
2019,04,12,14,48,786.60
2019,04,12,14,49,788.40
2019,04,12,14,50,788.50
2019,04,12,14,51,786.80
2019,04,12,14,52,787.40
2019,04,12,14,53,784.80
2019,04,12,14,54,783.50
2019,04,12,14,55,774.70
2019,04,12,14,56,772.20
2019,04,12,14,57,769.30
2019,04,12,14,58,767.10
2019,04,12,14,59,768.30
2019,04,12,15,00,768.70
2019,04,12,15,01,768.00
2019,04,12,15,02,768.00
2019,04,12,15,03,766.00
2019,04,12,15,04,765.80
2019,04,12,15,05,764.40
2019,04,12,15,06,763.80
2019,04,12,15,07,763.00
2019,04,12,15,08,759.90
2019,04,12,15,09,759.00
2019,04,12,15,10,759.00
2019,04,12,15,11,760.70
2019,04,12,15,12,758.80
2019,04,12,15,13,758.60
2019,04,12,15,14,759.30
2019,04,12,15,15,756.00
2019,04,12,15,16,754.00
2019,04,12,15,17,752.00
2019,04,12,15,18,749.70
2019,04,12,15,19,745.40
2019,04,12,15,20,744.00
2019,04,12,15,21,741.70
2019,04,12,15,22,739.40
2019,04,12,15,23,738.80
2019,04,12,15,24,740.00
2019,04,12,15,25,740.00
2019,04,12,15,26,740.00
2019,04,12,15,27,738.50
2019,04,12,15,28,737.10
2019,04,12,15,29,735.20
2019,04,12,15,30,737.00
2019,04,12,15,31,737.30
2019,04,12,15,32,738.00
2019,04,12,15,33,739.00
2019,04,12,15,34,741.20
2019,04,12,15,35,744.10
2019,04,12,15,36,746.60
2019,04,12,15,37,747.20
2019,04,12,15,38,751.00
2019,04,12,15,39,750.50
2019,04,12,15,40,747.70
2019,04,12,15,41,743.70
2019,04,12,15,42,739.20
2019,04,12,15,43,732.80
2019,04,12,15,44,727.10
2019,04,12,15,45,721.80
2019,04,12,15,46,714.00
2019,04,12,15,47,706.70
2019,04,12,15,48,703.90
2019,04,12,15,49,701.00
2019,04,12,15,50,700.50
2019,04,12,15,51,698.70
2019,04,12,15,52,695.30
2019,04,12,15,53,694.00
2019,04,12,15,54,694.30
2019,04,12,15,55,700.30
2019,04,12,15,56,692.70
2019,04,12,15,57,687.00
2019,04,12,15,58,685.70
2019,04,12,15,59,687.50
2019,04,12,16,00,669.30
2019,04,12,16,01,683.80
2019,04,12,16,02,695.50
2019,04,12,16,03,694.10
2019,04,12,16,04,694.80
2019,04,12,16,05,697.50
2019,04,12,16,06,695.30
2019,04,12,16,07,694.00
2019,04,12,16,08,692.20
2019,04,12,16,09,688.30
2019,04,12,16,10,681.80
2019,04,12,16,11,677.50
2019,04,12,16,12,666.20
2019,04,12,16,13,661.20
2019,04,12,16,14,651.80
2019,04,12,16,15,645.00
2019,04,12,16,16,638.70
2019,04,12,16,17,631.80
2019,04,12,16,18,626.80
2019,04,12,16,19,621.80
2019,04,12,16,20,615.30
2019,04,12,16,21,612.50
2019,04,12,16,22,607.20
2019,04,12,16,23,604.30
2019,04,12,16,24,603.00
2019,04,12,16,25,601.00
2019,04,12,16,26,599.00
2019,04,12,16,27,598.20
2019,04,12,16,28,594.60
2019,04,12,16,29,593.70
2019,04,12,16,30,590.70
2019,04,12,16,31,589.00
2019,04,12,16,32,587.40
2019,04,12,16,33,585.00
2019,04,12,16,34,583.20
2019,04,12,16,35,580.60
2019,04,12,16,36,577.60
2019,04,12,16,37,573.40
2019,04,12,16,38,571.30
2019,04,12,16,39,572.40
2019,04,12,16,40,569.30
2019,04,12,16,41,568.00
2019,04,12,16,42,565.90
2019,04,12,16,43,562.20
2019,04,12,16,44,558.00
2019,04,12,16,45,552.80
2019,04,12,16,46,548.30
2019,04,12,16,47,549.30
2019,04,12,16,48,543.90
2019,04,12,16,49,541.00
2019,04,12,16,50,541.00
2019,04,12,16,51,533.80
2019,04,12,16,52,527.70
2019,04,12,16,53,524.60
2019,04,12,16,54,520.40
2019,04,12,16,55,506.70
2019,04,12,16,56,512.40
2019,04,12,16,57,510.00
2019,04,12,16,58,509.10
2019,04,12,16,59,506.00
2019,04,12,17,00,499.20
2019,04,12,17,01,494.60
2019,04,12,17,02,471.90
2019,04,12,17,03,411.90
2019,04,12,17,04,465.40
2019,04,12,17,05,467.20
2019,04,12,17,06,399.00
2019,04,12,17,07,399.00
2019,04,12,17,08,205.60
2019,04,12,17,09,68.20
2019,04,12,17,10,73.00
2019,04,12,17,11,74.00
2019,04,12,17,12,76.20
2019,04,12,17,13,79.40